Regional Weather Roundup
Issued by NWS

Home | Current Version | Previous Version | Text Only | Print | Product List | Glossary Off
Versions: 1 2 3 4 5 6 7 8 9 10 11 12 13 14 15 16 17 18 19 20 21 22 23 24 25 26 27 28 29 30 31 32 33 34 35 36 37 38 39 40 41 42

000
ASUS43 KDMX 020607
RWRIA

WEATHER ROUNDUP FOR IOWA
NATIONAL WEATHER SERVICE DES MOINES IA
100 AM CDT THU OCT 02 2014

NOTE: "FAIR" INDICATES FEW OR NO CLOUDS BELOW 12,000 FEET WITH NO
SIGNIFICANT WEATHER AND/OR OBSTRUCTIONS TO VISIBILITY.

* - THESE STATIONS ARE NOT NWS STATIONS...THUS NOT UNDER NWS
QUALITY CONTROL.  THEY ALSO DO NOT REPORT WEATHER SUCH
AS PRECIPITATION OR FOG.

IAZ001>003-012>014-020>022-031>034-043>046-020700-
   NORTHWEST IOWA

CITY           SKY/WX    TMP DP  RH WIND       PRES   REMARKS
CARROLL *      FOG       57  57 100 CALM      29.79F VSB 1/2
CHEROKEE *     CLOUDY    61  60  97 CALM      29.81R
DENISON *      PTCLDY    61  61 100 CALM      29.78F FOG
LE MARS *      PTCLDY    57  55  94 CALM      29.81F
ORANGE CITY *  CLEAR     64  54  68 N5        29.81F
SHELDON *      PTCLDY    55  54  94 N6        29.81S
SIOUX CITY     CLOUDY    60  58  92 N5        29.80F
6HR MIN TEMP:  60; 6HR MAX TEMP:  74;

SPENCER        MOCLDY    57  56  96 NE6       29.81S
6HR MIN TEMP:  57; 6HR MAX TEMP:  65;

STORM LAKE *   LGT RAIN  61  59  94 W6        29.82R
$$

IAZ055>058-069>071-079>083-090>094-020700-
   SOUTHWEST IOWA

CITY           SKY/WX    TMP DP  RH WIND       PRES   REMARKS
ATLANTIC *     FOG       63  63 100 CALM      29.79S VSB 0
AUDUBON *      HAZE      57  54  88 CALM      29.81S VSB 1/4
CLARINDA *     CLOUDY    66  66 100 CALM      29.78F FOG
COUNCIL BLFS * PTCLDY    63  63 100 NE3       29.77F FOG
CRESTON *      FOG       61  61 100 E3        29.80S VSB 0
HARLAN  *      FOG       59  59 100 CALM      29.82F VSB 1/4
LAMONI         CLOUDY    65  64  97 SE3       29.79S FOG
6HR MIN TEMP:  64; 6HR MAX TEMP:  68;

RED OAK *      CLOUDY    63  63 100 NE5       29.80R FOG
SHENANDOAH *   MOCLDY    64  64 100 NE3       29.78S FOG
$$

IAZ047>049-059>061-072>074-084-020700-
   CENTRAL IOWA

CITY           SKY/WX    TMP DP  RH WIND       PRES   REMARKS
AMES           FOG       58  58 100 CALM      29.80F VSB<1/4
6HR MIN TEMP:  56; 6HR MAX TEMP:  67;

ANKENY *       CLOUDY    63  63 100 CALM      29.79S FOG
CHARITON *     FOG       63  63 100 CALM      29.80R VSB 1/4
DES MOINES     FOG       63  62  97 E5        29.79R VSB 1/8
6HR MIN TEMP:  62; 6HR MAX TEMP:  69;

GRINNELL*      CLOUDY    63  62  96 E3        29.82R FOG
KNOXVILLE *    FOG       64  63  94 E3        29.79S VSB 1/2
MARSHALLTOWN   CLOUDY    63  62  97 E3        29.80F FOG
6HR MIN TEMP:  63; 6HR MAX TEMP:  68;

PELLA *        CLOUDY    64  64  97 CALM      29.81S FOG
PERRY *        FOG       60  59  98 CALM      29.80S VSB<1/4
$$

IAZ004>006-015-016-023>025-035-036-020700-
   NORTH CENTRAL IOWA

CITY           SKY/WX    TMP DP  RH WIND       PRES   REMARKS
ALGONA *       MOCLDY    61  55  82 E5        29.82F
CLARION *      PTCLDY    57  57 100 E5        29.82S
ESTHERVILLE    CLOUDY    57  56  96 S5        29.82S
6HR MIN TEMP:  57; 6HR MAX TEMP:  65; 6HR PCP:  0.15;

FORT DODGE *   CLOUDY    57  55  94 E5        29.81F VSB 1/4
MASON CITY     FOG       50  50 100 CALM      29.84S VSB 1/4
6HR MIN TEMP:  49; 6HR MAX TEMP:  62;

FOREST CITY *  FOG       50  50 100 CALM      29.82F VSB 0
IOWA FALLS *   FOG       59  57  94 CALM      29.83F VSB<1/4
$$

IAZ007>011-017>019-026>030-037>042-050>054-066-020700-
   NORTHEAST IOWA

CITY           SKY/WX    TMP DP  RH WIND       PRES   REMARKS
CHARLES CITY * CLOUDY    61  61 100 SE7       29.84S FOG
CLINTON *      CLOUDY    63  57  82 E7        29.85F
DECORAH *      CLOUDY    63  61  94 CALM      29.84S
MONTICELLO *   CLOUDY    64  63  94 CALM      29.83F
OELWEIN *      CLOUDY    64  61  88 CALM      29.83F
WATERLOO       CLOUDY    63  60  90 CALM      29.81F
6HR MIN TEMP:  63; 6HR MAX TEMP:  68;

$$

IAZ064-065-067-068-078-020700-
   EAST CENTRAL IOWA

CITY           SKY/WX    TMP DP  RH WIND       PRES   REMARKS
IOWA CITY      CLOUDY    65  64  97 N3        29.83F
6HR MIN TEMP:  65; 6HR MAX TEMP:  66;

MT. PLEASANT * LGT RAIN  63  62  97 E7        29.80F
MUSCATINE *    CLOUDY    63  61  94 CALM      29.82S FOG
QUAD CITIES    CLOUDY    62  59  90 E5        29.80F FOG
6HR MIN TEMP:  60; 6HR MAX TEMP:  69;

$$

IAZ062-063-075>077-085>089-095>099-020700-
   SOUTHEAST IOWA

CITY           SKY/WX    TMP DP  RH WIND       PRES   REMARKS
BURLINGTON     CLOUDY    66  65  96 S8        29.81F FOG
6HR MIN TEMP:  65; 6HR MAX TEMP:  68; 6HR PCP:  0.12;

FAIRFIELD *    CLOUDY    64  63  94 NE5       29.81S
FORT MADISON * PTCLDY    66  64  94 S6        29.82S FOG
KEOKUK *       PTCLDY    64  64 100 SE6       29.81S
OSKALOOSA *      N/A     63  62  97 E5        29.81R FOG
CENTERVILLE *  MOCLDY    64  64 100 E5        29.82R
OTTUMWA        CLOUDY    63  62  97 SE5       29.80S FOG
6HR MIN TEMP:  63; 6HR MAX TEMP:  66;

WASHINGTON *   MOCLDY    63  63 100 NE5       29.81S FOG
$$

ABBREVIATIONS USED IN REMARKS
   TC - TEMPERATURES IN CELSIUS
  WCI - WIND CHILL INDEX
   HX - HEAT INDEX
  VSB - VISIBILITY
$$



USA.gov is the U.S. government's official web portal to all federal, state and local government web resources and services.